Location: Demre
(36.2444°N, 29.9850°E)
Time: 11:31:27
(UTC+00:00)

USA 238 DEB - Pass Details

Date: 11 March 2026
Orbit: 883 x 1328 km, 63.4° (Epoch: 10 January)

Event Time Altitude Azimuth Distance (km) Brightness Sun altitude
Rises 18:38:23 0° 214° (SW) 3,482 6.6 -31.4°
Reaches altitude 10° 18:40:49 10° 216° (SW) 2,566 5.8 -31.9°
Enters shadow 18:44:06 36° 222° (SW) 1,429 4.4 -32.5°
